• In Portugal
  • List of Countries
  • For 7 days
  • Water Temperature
  • Satellite Maps
  • Weather Map
  • Weather Widgets
  • user-avatar
    Login

    Hourly Weather Rawson

    Today, 21 September, Friday

    Time Temperature Precipitation Wind Pressure Humidity
    00:00 +15°C° 0 mm 6 mps 747 mmHg 42%
    01:00 +14°C° 0 mm 7 mps 747 mmHg 42%
    02:00 +12°C° 0 mm 7 mps 747 mmHg 44%
    03:00 +12°C° 0 mm 7 mps 747 mmHg 45%
    04:00 +11°C° 0 mm 7 mps 748 mmHg 46%
    05:00 +11°C° 0 mm 7 mps 748 mmHg 47%
    06:00 +12°C° 0 mm 8 mps 748 mmHg 45%
    07:00 +12°C° 0 mm 8 mps 749 mmHg 43%
    08:00 +13°C° 0 mm 10 mps 749 mmHg 39%
    09:00 +14°C° 0 mm 10 mps 749 mmHg 36%
    10:00 +16°C° 0 mm 10 mps 750 mmHg 33%
    11:00 +16°C° 0 mm 11 mps 750 mmHg 30%
    12:00 +17°C° 0 mm 9 mps 750 mmHg 29%
    13:00 +17°C° 0 mm 8 mps 750 mmHg 28%
    14:00 +18°C° 0 mm 7 mps 751 mmHg 26%
    15:00 +17°C° 0 mm 7 mps 751 mmHg 32%
    16:00 +16°C° 0 mm 7 mps 751 mmHg 38%
    17:00 +14°C° 0 mm 7 mps 751 mmHg 43%
    18:00 +13°C° 0.2 mm 6 mps 751 mmHg 55%
    19:00 +10°C° 0.2 mm 6 mps 752 mmHg 67%
    20:00 +8°C° 0.2 mm 6 mps 752 mmHg 78%
    21:00 +8°C° 1.5 mm 7 mps 751 mmHg 81%
    22:00 +6°C° 1.5 mm 7 mps 751 mmHg 84%
    23:00 +6°C° 1.5 mm 7 mps 751 mmHg 87%

    Tomorrow, 22 September, Saturday

    Time Temperature Precipitation Wind Pressure Humidity
    00:00 +6°C° 1.1 mm 8 mps 750 mmHg 87%
    01:00 +6°C° 1.1 mm 8 mps 749 mmHg 87%
    02:00 +7°C° 1.1 mm 8 mps 749 mmHg 86%
    03:00 +7°C° 0.1 mm 8 mps 748 mmHg 87%
    04:00 +7°C° 0.1 mm 8 mps 748 mmHg 87%
    05:00 +8°C° 0.1 mm 7 mps 747 mmHg 87%
    06:00 +9°C° 0.2 mm 6 mps 747 mmHg 86%
    07:00 +9°C° 0.2 mm 5 mps 747 mmHg 85%
    08:00 +10°C° 0.2 mm 4 mps 747 mmHg 84%
    09:00 +12°C° 0 mm 4 mps 747 mmHg 72%
    10:00 +14°C° 0 mm 5 mps 747 mmHg 61%
    11:00 +15°C° 0 mm 5 mps 747 mmHg 49%
    12:00 +17°C° 0 mm 5 mps 747 mmHg 42%
    13:00 +19°C° 0 mm 5 mps 747 mmHg 35%
    14:00 +20°C° 0 mm 6 mps 747 mmHg 28%
    15:00 +19°C° 0 mm 5 mps 747 mmHg 32%
    16:00 +17°C° 0 mm 5 mps 747 mmHg 36%
    17:00 +18°C° 0 mm 4 mps 747 mmHg 40%
    18:00 +15°C° 0 mm 5 mps 748 mmHg 54%
    19:00 +13°C° 0 mm 5 mps 749 mmHg 67%
    20:00 +10°C° 0 mm 6 mps 749 mmHg 80%
    21:00 +10°C° 0 mm 5 mps 750 mmHg 82%
    22:00 +9°C° 0 mm 5 mps 750 mmHg 85%
    23:00 +10°C° 0 mm 4 mps 750 mmHg 88%

    Day after tomorrow, 23 September, Sunday

    Time Temperature Precipitation Wind Pressure Humidity
    00:00 +10°C° 0 mm 3 mps 750 mmHg 88%
    01:00 +9°C° 0 mm 2 mps 751 mmHg 89%
    02:00 +10°C° 0 mm 1 mps 751 mmHg 89%
    03:00 +10°C° 0.1 mm 1 mps 751 mmHg 88%
    04:00 +10°C° 0.1 mm 1 mps 751 mmHg 86%
    05:00 +10°C° 0.1 mm 1 mps 752 mmHg 85%
    06:00 +10°C° 0 mm 3 mps 752 mmHg 72%
    07:00 +10°C° 0 mm 5 mps 752 mmHg 59%
    08:00 +11°C° 0 mm 7 mps 753 mmHg 47%
    09:00 +12°C° 0 mm 7 mps 753 mmHg 42%
    10:00 +13°C° 0 mm 8 mps 753 mmHg 37%
    11:00 +15°C° 0 mm 9 mps 753 mmHg 32%
    12:00 +16°C° 0 mm 9 mps 753 mmHg 29%
    13:00 +16°C° 0 mm 9 mps 753 mmHg 27%
    14:00 +16°C° 0 mm 9 mps 753 mmHg 25%
    15:00 +16°C° 0 mm 9 mps 753 mmHg 26%
    16:00 +16°C° 0 mm 9 mps 753 mmHg 26%
    17:00 +16°C° 0 mm 9 mps 753 mmHg 27%
    18:00 +15°C° 0 mm 9 mps 754 mmHg 30%
    19:00 +13°C° 0 mm 9 mps 755 mmHg 33%
    20:00 +13°C° 0 mm 8 mps 756 mmHg 36%
    21:00 +12°C° 0 mm 8 mps 757 mmHg 38%
    22:00 +11°C° 0 mm 8 mps 757 mmHg 39%
    23:00 +11°C° 0 mm 8 mps 758 mmHg 40%

    24 September, Monday

    Time Temperature Precipitation Wind Pressure Humidity
    00:00 +10°C° 0 mm 7 mps 759 mmHg 43%
    01:00 +9°C° 0 mm 6 mps 759 mmHg 46%
    02:00 +9°C° 0 mm 6 mps 760 mmHg 49%
    03:00 +8°C° 0 mm 5 mps 760 mmHg 51%
    04:00 +8°C° 0 mm 5 mps 760 mmHg 53%
    05:00 +7°C° 0 mm 4 mps 760 mmHg 55%
    06:00 +8°C° 0 mm 5 mps 760 mmHg 52%
    07:00 +9°C° 0 mm 5 mps 761 mmHg 49%
    08:00 +9°C° 0 mm 6 mps 761 mmHg 47%
    09:00 +10°C° 0 mm 5 mps 761 mmHg 42%
    10:00 +12°C° 0 mm 5 mps 761 mmHg 38%
    11:00 +13°C° 0 mm 4 mps 761 mmHg 34%
    12:00 +14°C° 0 mm 4 mps 761 mmHg 31%
    13:00 +15°C° 0 mm 4 mps 761 mmHg 29%
    14:00 +15°C° 0 mm 4 mps 760 mmHg 27%
    15:00 +16°C° 0 mm 3 mps 760 mmHg 26%
    16:00 +16°C° 0 mm 3 mps 759 mmHg 25%
    17:00 +16°C° 0 mm 3 mps 758 mmHg 24%
    18:00 +14°C° 0 mm 5 mps 758 mmHg 30%
    19:00 +13°C° 0 mm 6 mps 758 mmHg 37%
    20:00 +11°C° 0 mm 8 mps 758 mmHg 43%
    21:00 +11°C° 0 mm 9 mps 757 mmHg 45%
    22:00 +11°C° 0 mm 9 mps 757 mmHg 47%
    23:00 +11°C° 0 mm 10 mps 757 mmHg 50%

    25 September, Tuesday

    Time Temperature Precipitation Wind Pressure Humidity
    00:00 +11°C° 0 mm 9 mps 757 mmHg 47%
    01:00 +11°C° 0 mm 9 mps 756 mmHg 44%
    02:00 +11°C° 0 mm 8 mps 756 mmHg 41%
    03:00 +10°C° 0 mm 8 mps 756 mmHg 44%
    04:00 +9°C° 0 mm 7 mps 757 mmHg 46%
    05:00 +8°C° 0 mm 6 mps 757 mmHg 48%
    06:00 +9°C° 0 mm 6 mps 757 mmHg 44%
    07:00 +10°C° 0 mm 5 mps 758 mmHg 40%
    08:00 +12°C° 0 mm 5 mps 758 mmHg 36%
    09:00 +13°C° 0 mm 5 mps 758 mmHg 33%
    10:00 +14°C° 0 mm 5 mps 758 mmHg 31%
    11:00 +15°C° 0 mm 6 mps 758 mmHg 28%
    12:00 +16°C° 0 mm 6 mps 757 mmHg 25%
    13:00 +16°C° 0 mm 7 mps 757 mmHg 23%
    14:00 +17°C° 0 mm 8 mps 756 mmHg 21%
    15:00 +16°C° 0 mm 8 mps 756 mmHg 22%
    16:00 +16°C° 0 mm 9 mps 756 mmHg 24%
    17:00 +14°C° 0 mm 10 mps 755 mmHg 26%
    18:00 +15°C° 0 mm 9 mps 756 mmHg 28%
    19:00 +13°C° 0 mm 9 mps 757 mmHg 31%
    20:00 +12°C° 0 mm 8 mps 757 mmHg 33%
    21:00 +11°C° 0 mm 8 mps 757 mmHg 36%
    22:00 +10°C° 0 mm 8 mps 758 mmHg 40%
    23:00 +10°C° 0 mm 8 mps 758 mmHg 43%

    26 September, Wednesday

    Time Temperature Precipitation Wind Pressure Humidity
    00:00 +9°C° 0 mm 8 mps 759 mmHg 48%
    01:00 +7°C° 0 mm 8 mps 759 mmHg 54%
    02:00 +7°C° 0 mm 8 mps 759 mmHg 59%
    03:00 +6°C° 0 mm 8 mps 760 mmHg 63%
    04:00 +6°C° 0 mm 7 mps 760 mmHg 68%
    05:00 +5°C° 0 mm 7 mps 760 mmHg 72%
    06:00 +5°C° 0 mm 6 mps 761 mmHg 71%
    07:00 +7°C° 0 mm 6 mps 761 mmHg 71%
    08:00 +7°C° 0 mm 6 mps 761 mmHg 70%
    09:00 +8°C° 0 mm 5 mps 762 mmHg 66%
    10:00 +10°C° 0 mm 4 mps 762 mmHg 61%
    11:00 +11°C° 0 mm 4 mps 762 mmHg 56%
    12:00 +11°C° 0 mm 4 mps 762 mmHg 56%
    13:00 +11°C° 0 mm 4 mps 762 mmHg 56%
    14:00 +11°C° 0 mm 4 mps 761 mmHg 56%
    15:00 +10°C° 0 mm 5 mps 762 mmHg 59%
    16:00 +9°C° 0 mm 6 mps 762 mmHg 63%
    17:00 +9°C° 0 mm 6 mps 762 mmHg 66%
    18:00 +8°C° 0 mm 7 mps 762 mmHg 69%
    19:00 +8°C° 0 mm 7 mps 763 mmHg 72%
    20:00 +6°C° 0 mm 7 mps 763 mmHg 76%
    21:00 +6°C° 0.1 mm 7 mps 763 mmHg 75%
    22:00 +7°C° 0.1 mm 6 mps 764 mmHg 74%
    23:00 +7°C° 0.1 mm 6 mps 764 mmHg 73%
    Show more